EN

Hourly Weather Alt Bachs

Today, 19 January, Tuesday

Time Temperature Precipitation Wind Pressure Humidity
00:00 -2°C° 0 mm 1 mps 719 mmHg 95%
01:00 -4°C° 0 mm 0 mps 719 mmHg 94%
02:00 -4°C° 0 mm 1 mps 718 mmHg 93%
03:00 -4°C° 0 mm 1 mps 718 mmHg 93%
04:00 -6°C° 0 mm 1 mps 717 mmHg 92%
05:00 -6°C° 0 mm 1 mps 717 mmHg 92%
06:00 -6°C° 0 mm 1 mps 717 mmHg 91%
07:00 -4°C° 0 mm 1 mps 716 mmHg 91%
08:00 -3°C° 0 mm 1 mps 716 mmHg 89%
09:00 -2°C° 0 mm 1 mps 716 mmHg 88%
10:00 -2°C° 0 mm 1 mps 715 mmHg 87%
11:00 0°C° 0 mm 1 mps 715 mmHg 86%
12:00 -1°C° 0 mm 2 mps 715 mmHg 85%
13:00 +2°C° 0 mm 2 mps 714 mmHg 82%
14:00 +2°C° 0 mm 2 mps 714 mmHg 84%
15:00 +2°C° 0 mm 2 mps 714 mmHg 85%
16:00 +3°C° 0 mm 1 mps 714 mmHg 86%
17:00 +2°C° 0 mm 1 mps 714 mmHg 85%
18:00 +2°C° 0 mm 1 mps 714 mmHg 84%
19:00 +1°C° 0 mm 1 mps 713 mmHg 84%
20:00 0°C° 0 mm 1 mps 713 mmHg 84%
21:00 0°C° 0 mm 1 mps 713 mmHg 84%
22:00 -1°C° 0 mm 1 mps 713 mmHg 84%
23:00 -1°C° 0 mm 1 mps 713 mmHg 84%

Tomorrow, 20 January, Wednesday

Time Temperature Precipitation Wind Pressure Humidity
00:00 -1°C° 0 mm 1 mps 712 mmHg 84%
01:00 -1°C° 0 mm 1 mps 712 mmHg 83%
02:00 -2°C° 0 mm 1 mps 712 mmHg 83%
03:00 -2°C° 0 mm 1 mps 711 mmHg 83%
04:00 -3°C° 0 mm 0 mps 711 mmHg 82%
05:00 -2°C° 0 mm 1 mps 711 mmHg 82%
06:00 -2°C° 0 mm 1 mps 711 mmHg 83%
07:00 -2°C° 0 mm 1 mps 710 mmHg 83%
08:00 -1°C° 0 mm 1 mps 710 mmHg 82%
09:00 -1°C° 0 mm 0 mps 710 mmHg 82%
10:00 0°C° 0 mm 0 mps 710 mmHg 81%
11:00 +1°C° 0 mm 0 mps 710 mmHg 84%
12:00 +1°C° 0 mm 0 mps 709 mmHg 86%
13:00 +2°C° 0 mm 0 mps 709 mmHg 88%
14:00 +2°C° 0 mm 0 mps 708 mmHg 88%
15:00 +2°C° 0 mm 0 mps 708 mmHg 88%
16:00 +1°C° 0 mm 0 mps 707 mmHg 87%
17:00 +1°C° 0 mm 1 mps 707 mmHg 87%
18:00 0°C° 0 mm 1 mps 707 mmHg 86%
19:00 -1°C° 0 mm 1 mps 707 mmHg 86%
20:00 -1°C° 0 mm 1 mps 707 mmHg 86%
21:00 -1°C° 0 mm 1 mps 707 mmHg 86%
22:00 -2°C° 0 mm 0 mps 707 mmHg 87%
23:00 -1°C° 0 mm 1 mps 706 mmHg 87%

Day after tomorrow, 21 January, Thursday

Time Temperature Precipitation Wind Pressure Humidity
00:00 -1°C° 0 mm 1 mps 706 mmHg 87%
01:00 -1°C° 0 mm 1 mps 706 mmHg 87%
02:00 -1°C° 0 mm 1 mps 706 mmHg 87%
03:00 -1°C° 0 mm 1 mps 706 mmHg 87%
04:00 -1°C° 0 mm 1 mps 705 mmHg 86%
05:00 0°C° 0 mm 1 mps 705 mmHg 87%
06:00 0°C° 0 mm 1 mps 705 mmHg 87%
07:00 0°C° 0 mm 1 mps 705 mmHg 88%
08:00 +1°C° 0 mm 1 mps 705 mmHg 87%
09:00 +1°C° 0 mm 1 mps 705 mmHg 87%
10:00 +2°C° 0 mm 1 mps 705 mmHg 87%
11:00 +3°C° 0 mm 1 mps 705 mmHg 87%
12:00 +4°C° 0 mm 1 mps 705 mmHg 88%
13:00 +5°C° 0 mm 1 mps 705 mmHg 88%
14:00 +5°C° 0 mm 1 mps 705 mmHg 90%
15:00 +5°C° 0 mm 1 mps 704 mmHg 91%
16:00 +4°C° 0 mm 1 mps 704 mmHg 92%
17:00 +4°C° 0 mm 1 mps 703 mmHg 91%
18:00 +3°C° 0 mm 1 mps 703 mmHg 90%
19:00 +2°C° 0 mm 1 mps 702 mmHg 90%
20:00 +2°C° 0 mm 1 mps 702 mmHg 89%
21:00 +2°C° 0 mm 1 mps 702 mmHg 89%
22:00 +2°C° 0 mm 1 mps 702 mmHg 89%
23:00 +2°C° 0.1 mm 1 mps 701 mmHg 90%

22 January, Friday

Time Temperature Precipitation Wind Pressure Humidity
00:00 +3°C° 0.1 mm 1 mps 701 mmHg 91%
01:00 +3°C° 0.1 mm 1 mps 701 mmHg 92%
02:00 +3°C° 0 mm 1 mps 700 mmHg 92%
03:00 +2°C° 0 mm 2 mps 700 mmHg 92%
04:00 +2°C° 0 mm 2 mps 699 mmHg 93%
05:00 +2°C° 0.1 mm 2 mps 700 mmHg 92%
06:00 +2°C° 0.1 mm 2 mps 700 mmHg 92%
07:00 +3°C° 0.1 mm 1 mps 700 mmHg 91%
08:00 +2°C° 0.9 mm 2 mps 700 mmHg 93%
09:00 +2°C° 0.9 mm 2 mps 700 mmHg 95%
10:00 +2°C° 0.9 mm 3 mps 701 mmHg 96%
11:00 +2°C° 1.2 mm 2 mps 701 mmHg 97%
12:00 +3°C° 1.2 mm 1 mps 701 mmHg 98%
13:00 +3°C° 1.2 mm 1 mps 701 mmHg 99%
14:00 +3°C° 0.1 mm 1 mps 700 mmHg 99%
15:00 +3°C° 0.1 mm 1 mps 700 mmHg 99%
16:00 +1°C° 0.1 mm 0 mps 699 mmHg 99%
17:00 +2°C° 0 mm 1 mps 699 mmHg 99%
18:00 +2°C° 0 mm 1 mps 699 mmHg 99%
19:00 +2°C° 0 mm 1 mps 699 mmHg 98%
20:00 +2°C° 0.5 mm 1 mps 699 mmHg 98%
21:00 +1°C° 0.5 mm 0 mps 699 mmHg 99%
22:00 +1°C° 0.5 mm 0 mps 699 mmHg 99%
23:00 +2°C° 1.2 mm 1 mps 699 mmHg 99%

23 January, Saturday

Time Temperature Precipitation Wind Pressure Humidity
00:00 +2°C° 1.2 mm 1 mps 700 mmHg 99%
01:00 +1°C° 1.2 mm 1 mps 700 mmHg 99%
02:00 +1°C° 0.7 mm 1 mps 700 mmHg 99%
03:00 +1°C° 0.7 mm 1 mps 701 mmHg 98%
04:00 -1°C° 0.7 mm 2 mps 701 mmHg 98%
05:00 -1°C° 0.3 mm 2 mps 701 mmHg 98%
06:00 -1°C° 0.3 mm 2 mps 701 mmHg 98%
07:00 -1°C° 0.3 mm 2 mps 702 mmHg 97%
08:00 -1°C° 0.1 mm 2 mps 701 mmHg 96%
09:00 +1°C° 0.1 mm 1 mps 701 mmHg 95%
10:00 +2°C° 0.1 mm 1 mps 701 mmHg 95%
11:00 +2°C° 0 mm 1 mps 701 mmHg 94%
12:00 +3°C° 0 mm 1 mps 700 mmHg 93%
13:00 +3°C° 0 mm 1 mps 700 mmHg 92%
14:00 +3°C° 0 mm 1 mps 700 mmHg 93%
15:00 +2°C° 0 mm 0 mps 700 mmHg 94%
16:00 +2°C° 0 mm 0 mps 699 mmHg 95%
17:00 +1°C° 0.1 mm 0 mps 700 mmHg 95%
18:00 0°C° 0.1 mm 0 mps 700 mmHg 96%
19:00 0°C° 0.1 mm 0 mps 700 mmHg 96%
20:00 -1°C° 1 mm 2 mps 701 mmHg 97%
21:00 -2°C° 1 mm 4 mps 701 mmHg 97%
22:00 -2°C° 1 mm 5 mps 701 mmHg 97%
23:00 -2°C° 0.2 mm 5 mps 701 mmHg 95%

24 January, Sunday

Time Temperature Precipitation Wind Pressure Humidity
00:00 -3°C° 0.2 mm 4 mps 702 mmHg 93%
01:00 -2°C° 0.2 mm 3 mps 702 mmHg 92%
02:00 -4°C° 0 mm 3 mps 702 mmHg 92%
03:00 -3°C° 0 mm 2 mps 702 mmHg 92%
04:00 -4°C° 0 mm 2 mps 703 mmHg 92%
05:00 -4°C° 0 mm 2 mps 703 mmHg 93%
06:00 -4°C° 0 mm 2 mps 703 mmHg 93%
07:00 -2°C° 0 mm 1 mps 704 mmHg 93%
08:00 -1°C° 0 mm 1 mps 704 mmHg 92%
09:00 -1°C° 0 mm 1 mps 704 mmHg 91%
10:00 0°C° 0 mm 1 mps 705 mmHg 91%
11:00 -1°C° 0 mm 2 mps 705 mmHg 90%
12:00 -1°C° 0 mm 2 mps 705 mmHg 89%
13:00 0°C° 0 mm 3 mps 705 mmHg 88%
14:00 0°C° 0 mm 3 mps 704 mmHg 88%
15:00 +1°C° 0 mm 2 mps 704 mmHg 89%
16:00 +1°C° 0 mm 2 mps 704 mmHg 89%
17:00 -1°C° 0.2 mm 3 mps 704 mmHg 90%
18:00 -1°C° 0.2 mm 3 mps 704 mmHg 91%
19:00 -3°C° 0.2 mm 4 mps 705 mmHg 92%
20:00 -3°C° 1 mm 4 mps 705 mmHg 93%
21:00 -3°C° 1 mm 4 mps 706 mmHg 93%
22:00 -3°C° 1 mm 4 mps 707 mmHg 93%
23:00 -4°C° 0.1 mm 4 mps 707 mmHg 92%
Show more